Date,TemperatureHighF,TemperatureAvgF,TemperatureLowF,DewpointHighF,DewpointAvgF,DewpointLowF,HumidityHigh,HumidityAvg,HumidityLow,PressureMaxIn,PressureMinIn,WindSpeedMaxMPH,WindSpeedAvgMPH,GustSpeedMaxMPH,PrecipitationSumIn
2013-1-1,35,29,17,27,19,6,79,66,53,29.90,29.66,12,4,27,0.00
2013-1-2,28,18,8,19,9,-2,79,68,60,30.10,29.85,11,3,20,0.00
2013-1-3,22,13,3,11,2,-4,78,63,44,30.11,29.93,6,1,15,0.00
2013-1-4,37,25,14,25,19,10,93,77,61,29.93,29.77,10,2,18,0.01
2013-1-5,38,31,21,27,22,17,85,69,48,30.22,29.80,12,2,17,0.01
2013-1-6,39,30,22,30,25,18,91,82,66,30.19,29.89,9,1,12,0.02
2013-1-7,36,29,22,30,23,17,97,81,57,30.37,29.94,12,2,14,0.01
2013-1-8,43,31,22,30,26,20,97,82,58,30.33,30.23,9,2,17,0.10
2013-1-9,40,33,22,35,29,21,97,83,66,30.38,29.95,8,2,16,0.00
2013-1-10,43,39,28,30,27,23,83,63,51,30.50,30.00,19,5,22,0.00
2013-1-11,38,32,25,36,28,22,99,86,73,30.49,30.18,5,1,5,0.10
2013-1-12,41,38,36,41,38,36,100,100,99,30.18,30.08,3,1,7,0.03
2013-1-13,49,44,39,49,44,39,100,100,100,30.12,29.94,9,2,11,0.00
2013-1-14,56,48,39,53,44,29,100,86,63,30.22,29.80,12,3,16,0.00
2013-1-15,40,36,30,29,27,25,87,73,61,30.29,30.19,6,2,11,0.00
2013-1-16,33,32,29,33,30,26,100,93,80,30.21,29.78,2,0,3,0.00
2013-1-17,39,32,27,36,28,16,100,87,61,30.08,29.80,9,2,17,0.20
2013-1-18,27,20,15,16,6,3,66,55,42,30.39,30.01,16,4,19,0.00
2013-1-19,45,34,21,32,23,10,79,63,48,30.30,29.78,13,4,22,0.27
2013-1-20,50,38,26,33,27,14,79,64,46,29.88,29.44,17,5,27,0.01
2013-1-21,28,24,18,20,12,7,91,63,47,30.04,29.71,9,2,18,0.00
2013-1-22,29,20,10,20,11,2,94,72,48,30.02,29.71,12,2,18,0.00
2013-1-23,18,10,5,1,-3,-8,70,54,39,30.08,30.00,14,2,21,0.00
2013-1-24,18,10,2,-2,-5,-8,66,51,37,30.18,29.99,15,4,24,0.00
2013-1-25,23,15,7,9,-2,-7,69,46,34,30.25,30.00,10,2,21,0.00
2013-1-26,22,17,12,10,4,-3,80,60,37,30.17,29.95,14,3,17,0.00
2013-1-27,28,19,13,6,4,1,69,52,36,30.40,30.18,12,3,20,0.00
2013-1-28,30,23,17,25,13,4,94,67,39,30.39,29.95,6,0,10,0.00
2013-1-29,34,29,25,32,27,24,98,92,82,30.12,29.97,4,1,5,0.06
2013-1-30,59,45,32,57,44,32,100,98,93,30.06,29.30,16,4,24,0.31
2013-1-31,60,47,28,59,41,19,100,81,54,29.53,28.87,25,7,38,0.70
2013-2-1,31,27,20,19,13,7,72,56,44,30.02,29.53,16,4,24,0.00
2013-2-2,29,23,16,14,9,6,68,55,45,30.17,29.98,10,2,17,0.00
2013-2-3,27,24,20,23,20,14,91,84,64,29.99,29.68,6,2,8,0.00
2013-2-4,29,23,18,21,14,8,93,70,49,29.90,29.67,13,3,24,0.01
2013-2-5,29,24,19,23,14,9,89,66,52,29.98,29.88,6,2,9,0.00
2013-2-6,37,28,22,28,20,9,95,74,51,30.26,29.87,9,2,17,0.02
2013-2-7,27,22,14,11,6,3,69,51,39,30.49,30.26,9,2,14,0.00
2013-2-8,26,22,16,22,19,11,99,87,57,30.42,29.58,17,4,30,0.00
2013-2-9,21,18,14,20,15,6,100,89,72,30.17,29.57,19,8,30,0.00
2013-2-10,33,19,4,15,9,-1,84,65,44,30.33,30.17,12,2,18,0.02
2013-2-11,35,27,16,34,24,9,100,88,74,30.30,29.55,3,0,6,0.02
2013-2-12,42,36,32,34,31,28,100,83,64,29.81,29.55,10,3,22,0.36
2013-2-13,42,33,26,28,26,23,89,76,56,29.81,29.64,6,1,14,0.07
2013-2-14,40,33,26,27,25,22,87,73,53,29.84,29.67,7,2,12,0.00
2013-2-15,48,41,30,34,32,28,94,73,57,29.90,29.83,12,2,16,0.00
2013-2-16,38,33,30,33,31,28,98,92,75,29.90,29.79,6,3,15,0.01
2013-2-18,29,26,20,7,6,4,55,43,35,30.10,29.88,21,4,29,0.00
2013-2-19,45,33,20,40,23,6,99,68,49,30.12,29.48,8,2,13,0.24
2013-2-20,38,32,25,38,24,15,100,75,53,29.72,29.48,12,3,20,0.00
2013-2-21,32,26,23,17,16,13,75,65,51,30.18,29.72,20,4,29,0.00
2013-2-22,39,30,21,26,22,17,87,71,49,30.34,30.19,8,2,14,0.00
2013-2-23,38,33,28,33,29,24,99,86,73,30.27,29.85,9,1,12,0.00
2013-2-24,35,33,30,35,33,30,100,100,99,29.86,29.65,7,3,16,0.56
2013-2-25,39,33,30,34,32,30,100,95,82,30.19,29.87,3,0,17,0.23
2013-2-26,42,34,29,38,31,29,100,89,69,30.28,30.09,6,1,11,0.00
2013-2-27,40,37,35,40,36,31,100,98,87,30.09,29.50,15,4,23,1.30
2013-2-28,44,37,33,40,36,33,100,95,82,29.58,29.46,4,1,9,0.00
2013-3-1,39,36,30,36,32,29,100,87,75,29.62,29.48,7,2,12,0.00
2013-3-2,42,36,29,32,29,27,90,78,68,29.62,29.56,7,3,14,0.00
2013-3-3,40,34,31,33,29,27,89,82,77,29.59,29.50,9,3,17,0.01
2013-3-4,39,33,29,29,26,24,85,75,61,29.71,29.52,14,6,24,0.00
2013-3-5,44,35,30,33,28,24,94,76,59,30.01,29.71,12,2,18,0.00
2013-3-6,39,36,33,36,34,32,99,94,83,30.06,29.99,19,3,24,0.13
2013-3-7,34,32,30,33,31,28,100,97,90,30.03,29.94,12,5,23,0.09
2013-3-8,38,32,28,34,30,24,100,91,71,30.11,29.90,10,4,17,0.00
2013-3-9,46,32,24,31,25,21,96,76,47,30.31,30.11,7,1,13,0.87
2013-3-10,44,33,22,36,29,22,100,87,67,30.36,30.24,7,2,11,0.10
2013-3-11,51,41,33,40,36,32,98,83,56,30.27,30.07,9,3,15,0.00
2013-3-12,54,48,41,52,47,40,100,98,88,30.08,29.65,14,4,22,0.50
2013-3-13,50,42,32,49,34,23,100,75,47,29.72,29.62,12,3,15,0.00
2013-3-14,38,31,22,25,19,11,82,62,47,29.77,29.63,12,2,24,0.00
2013-3-15,39,29,19,28,16,7,84,58,35,29.81,29.55,17,3,24,0.00
2013-3-16,38,32,26,27,18,13,83,56,38,29.82,29.59,12,0,20,0.00
2013-3-17,38,29,21,19,13,6,82,53,33,30.26,29.82,14,3,21,0.00
2013-3-18,38,28,16,26,11,4,85,51,30,30.41,30.19,7,1,14,0.00
2013-3-19,34,32,28,34,31,26,100,97,85,30.18,29.57,4,0,6,0.00
2013-3-20,37,30,25,28,24,22,98,81,60,29.75,29.64,12,1,18,0.33
2013-3-21,38,30,20,28,22,18,93,76,47,29.76,29.55,6,1,9,0.20
2013-3-22,41,32,26,26,23,20,93,68,46,29.67,29.55,7,2,14,0.26
2013-3-23,42,34,25,26,22,20,85,64,45,29.71,29.56,16,2,27,0.09
2013-3-24,45,37,30,28,25,22,82,64,48,29.76,29.65,11,2,19,0.01
2013-3-25,42,36,28,34,30,26,91,81,71,29.72,29.47,7,1,15,0.00
2013-3-26,49,40,34,31,27,23,82,62,41,29.72,29.49,9,2,15,0.00
2013-3-27,54,41,27,33,27,22,85,60,38,29.81,29.67,12,3,19,0.00
2013-3-28,48,41,36,37,34,32,94,77,56,29.95,29.81,7,2,13,0.03
2013-3-29,57,44,32,39,33,29,93,69,42,30.00,29.89,8,2,15,0.00
2013-3-30,56,45,34,34,27,19,87,54,27,30.03,29.92,11,2,16,0.00
2013-3-31,60,44,27,39,28,22,85,57,28,30.07,29.69,13,2,24,0.03
2013-4-1,61,47,34,47,38,16,98,73,42,29.72,29.43,17,3,24,0.20
2013-4-2,41,34,28,19,16,12,61,47,35,29.86,29.72,16,4,25,0.00
2013-4-3,47,36,28,18,16,12,60,44,27,30.09,29.85,16,4,25,0.00
2013-4-4,55,41,27,24,19,16,67,44,25,30.24,29.97,9,1,12,0.00
2013-4-5,59,45,36,30,27,23,73,52,29,29.97,29.55,0,0,0,0.00
2013-4-6,45,37,30,24,15,10,58,41,25,30.27,29.82,0,0,0,0.00
2013-4-7,56,42,26,39,27,15,81,59,32,30.27,29.92,0,0,0,0.00
2013-4-8,63,46,0,44,39,36,97,67,37,30.02,29.89,5,0,9,0.00
2013-4-9,70,56,46,53,44,39,93,68,43,30.01,29.78,10,2,20,0.02
2013-4-10,61,51,45,50,46,42,96,84,64,29.96,29.78,7,1,9,0.28
2013-4-11,53,47,41,47,41,28,100,82,52,30.08,29.77,3,0,6,0.09
2013-4-12,41,38,36,38,35,32,100,91,75,30.11,29.74,14,1,18,0.52
2013-4-13,52,42,35,42,38,35,100,86,61,29.86,29.72,7,2,13,0.09
2013-4-14,54,45,36,41,35,28,94,69,45,30.15,29.84,10,2,17,0.00
2013-4-15,58,44,31,38,34,28,93,70,40,30.32,30.15,9,1,17,0.00
2013-4-16,66,52,38,51,43,36,95,72,48,30.34,29.97,19,4,26,0.00
2013-4-17,66,57,45,53,39,30,89,53,30,30.26,29.98,10,3,18,0.00
2013-4-18,62,51,38,44,34,29,78,55,37,30.37,30.07,12,2,19,0.00
2013-4-19,74,62,52,63,57,44,98,82,60,30.08,29.55,20,5,30,0.00
2013-4-20,66,54,43,63,44,27,99,72,45,30.14,29.51,16,4,21,0.54
2013-4-21,53,43,33,29,25,21,78,51,30,30.61,30.15,10,2,19,0.00
2013-4-22,54,42,31,36,31,27,93,68,37,30.70,30.54,15,2,18,0.00
2013-4-23,42,39,35,41,37,30,100,93,80,30.54,30.07,9,3,18,0.04
2013-4-24,73,56,41,55,46,41,100,74,32,30.07,29.69,16,4,21,0.01
2013-4-25,64,55,43,52,39,29,92,58,32,30.21,29.74,12,2,20,0.03
2013-4-26,63,50,36,38,35,30,86,59,37,30.36,30.21,9,1,14,0.00
2013-4-27,66,52,37,41,37,34,94,61,36,30.36,30.20,7,1,16,0.00
2013-4-28,71,54,38,44,37,30,91,57,32,30.28,30.14,14,2,17,0.00
2013-4-29,71,57,46,49,39,29,84,53,32,30.21,30.09,14,2,20,0.00
2013-4-30,70,57,45,37,32,25,68,41,23,30.30,30.18,6,0,12,0.00
2013-5-1,72,55,38,41,36,32,87,52,29,30.40,30.30,7,0,13,0.00
2013-5-2,79,55,42,48,41,36,88,62,27,30.42,30.27,9,1,17,0.00
2013-5-3,62,51,40,45,41,37,92,72,52,30.47,30.31,11,2,13,0.00
2013-5-4,64,50,39,47,38,27,98,69,29,30.31,30.22,9,2,16,0.00
2013-5-5,64,49,35,44,39,34,98,72,45,30.31,30.19,10,2,17,0.00
2013-5-6,71,52,36,49,43,34,99,76,39,30.25,30.08,8,1,13,0.00
2013-5-7,78,62,45,58,52,44,99,73,42,30.12,30.00,8,2,15,0.00
2013-5-8,75,63,53,63,58,52,97,85,62,30.13,29.96,10,2,22,0.02
2013-5-9,66,60,57,64,58,56,100,97,86,29.97,29.80,4,1,9,0.44
2013-5-10,79,64,54,63,58,54,100,81,49,29.89,29.80,7,2,11,0.01
2013-5-11,69,64,59,62,59,54,98,86,76,29.82,29.61,9,3,20,0.15
2013-5-12,70,60,48,61,53,35,99,80,49,29.73,29.47,13,2,19,0.10
2013-5-13,60,49,40,37,34,30,82,57,39,29.97,29.73,9,2,14,0.00
2013-5-14,60,49,38,38,34,31,86,59,38,30.01,29.91,9,2,16,0.00
2013-5-15,67,52,36,51,40,33,91,68,34,30.01,29.61,16,2,22,0.00
2013-5-16,80,65,49,50,44,35,95,56,26,29.73,29.55,11,2,20,0.00
2013-5-17,69,59,50,47,42,38,77,55,38,30.15,29.74,12,2,17,0.00
2013-5-18,74,58,44,49,45,41,92,66,33,30.26,30.15,7,0,11,0.00
2013-5-19,71,57,49,56,51,47,97,82,50,30.30,30.16,11,0,16,0.15
2013-5-20,80,67,56,66,61,55,100,84,61,30.15,29.82,8,1,12,0.05
2013-5-21,79,60,51,68,57,50,98,90,67,29.95,29.79,9,2,15,0.00
2013-5-22,66,56,50,62,54,50,100,95,83,30.00,29.80,6,2,12,0.53
2013-5-23,74,62,53,71,61,53,100,95,83,29.86,29.72,13,2,22,0.19
2013-5-24,70,62,49,68,61,49,100,95,83,29.75,29.57,10,2,19,0.38
2013-5-25,51,47,41,51,47,41,100,100,98,29.75,29.64,14,4,16,0.49
2013-5-26,57,48,40,47,42,39,100,82,61,30.02,29.65,12,3,20,0.08
2013-5-27,71,56,39,47,42,38,98,65,32,30.11,29.99,10,1,14,0.00
2013-5-28,74,59,44,52,47,42,96,68,37,30.19,30.08,4,0,11,0.00
2013-5-29,68,62,56,65,60,51,100,93,83,30.11,29.90,4,0,9,0.60
2013-5-30,85,72,61,71,65,61,100,81,55,30.00,29.90,6,1,12,0.02
2013-5-31,92,78,63,71,66,61,97,69,42,30.00,29.81,6,1,13,0.00
2013-6-1,92,80,66,69,65,62,91,65,38,29.86,29.72,9,2,17,0.00
2013-6-2,89,78,69,70,67,63,90,71,44,29.76,29.59,13,3,25,0.01
2013-6-3,76,68,59,69,63,48,98,83,62,29.76,29.65,11,2,13,0.50
2013-6-4,70,61,50,50,47,44,82,62,44,30.04,29.75,7,1,14,0.00
2013-6-5,75,62,50,54,49,45,91,65,39,30.14,30.01,5,0,8,0.00
2013-6-6,75,63,54,57,52,48,87,68,48,30.14,30.02,6,0,12,0.01
2013-6-7,59,56,53,57,54,53,100,96,84,30.05,29.77,7,1,12,0.94
2013-6-8,76,62,52,66,59,52,100,89,68,29.92,29.58,6,2,11,1.85
2013-6-9,79,67,55,61,58,55,99,75,48,30.08,29.92,3,0,12,0.07
2013-6-10,67,59,56,60,57,54,99,92,77,30.14,29.96,4,0,9,0.32
2013-6-11,61,58,55,59,57,55,100,98,91,29.96,29.51,6,2,15,1.30
2013-6-12,68,61,56,60,57,54,100,86,68,29.74,29.50,16,2,22,0.08
2013-6-13,66,57,52,60,55,51,100,93,76,29.76,29.63,3,0,9,0.51
2013-6-14,72,60,52,60,56,52,100,89,64,29.70,29.59,6,1,9,0.90
2013-6-15,78,65,54,56,52,48,93,65,37,29.86,29.70,6,0,12,0.01
2013-6-16,76,65,54,61,55,50,89,71,46,29.87,29.63,6,1,12,0.00
2013-6-17,84,68,58,66,61,56,97,81,45,29.83,29.69,6,1,16,0.27
2013-6-18,73,62,58,65,60,57,100,94,75,29.88,29.81,5,1,20,0.11
2013-6-19,75,63,56,60,56,51,100,78,47,30.07,29.85,8,1,10,0.18
2013-6-20,78,65,50,57,53,49,97,69,40,30.20,30.08,4,1,11,0.00
2013-6-21,84,70,58,64,58,54,90,69,40,30.17,30.10,5,1,11,0.00
2013-6-22,84,72,61,67,62,58,92,72,48,30.13,30.00,8,2,12,0.00
2013-6-23,89,76,64,73,66,59,84,72,57,30.06,29.87,7,2,15,0.01
2013-6-24,92,80,70,74,70,67,94,75,51,29.91,29.75,7,2,14,0.02
2013-6-25,90,78,69,73,69,66,92,75,51,29.83,29.61,8,2,13,0.00
2013-6-26,82,74,67,74,70,66,95,88,66,29.77,29.62,5,1,7,0.30
2013-6-27,72,65,61,68,64,61,100,96,89,29.81,29.69,4,2,7,0.15
2013-6-28,81,69,58,74,67,58,100,93,76,29.70,29.39,10,2,17,0.33
2013-6-29,83,74,70,72,69,66,97,84,61,29.62,29.42,12,3,16,0.00
2013-6-30,85,76,68,73,70,67,98,83,63,29.83,29.62,9,2,14,0.00
2013-7-1,81,74,71,76,72,70,100,94,80,29.98,29.83,6,2,11,1.01
2013-7-2,81,71,61,76,69,60,100,94,80,30.14,29.97,10,1,12,0.51
2013-7-3,85,73,61,75,69,60,100,88,67,30.13,30.03,9,2,14,0.00
2013-7-4,91,81,71,76,73,70,99,79,59,30.11,29.98,8,2,12,0.00
2013-7-5,92,83,74,77,74,72,93,75,55,30.06,29.92,7,2,12,0.00
2013-7-6,90,80,73,75,72,64,92,76,55,29.97,29.86,7,2,12,0.00
2013-7-7,90,78,68,77,70,63,91,78,59,29.92,29.79,5,1,9,0.00
2013-7-8,85,76,65,76,72,64,97,87,72,29.99,29.81,6,1,11,0.09
2013-7-9,72,68,64,69,66,64,99,95,89,30.03,29.96,4,1,6,0.28
2013-7-10,83,73,66,77,70,65,100,93,79,30.00,29.70,7,2,17,0.03
2013-7-11,80,75,70,76,73,69,100,94,80,29.84,29.67,5,1,9,0.03
2013-7-12,78,70,65,70,63,58,98,78,56,30.12,29.84,9,2,13,0.00
2013-7-13,80,71,64,72,66,59,94,84,74,30.23,30.12,5,1,11,0.00
2013-7-14,89,77,68,75,72,67,99,84,58,30.22,30.10,5,1,10,0.00
2013-7-15,89,79,70,75,72,69,97,82,60,30.11,29.99,5,1,9,0.00
2013-7-16,91,79,68,74,70,66,95,76,51,30.07,30.00,6,1,9,0.00
2013-7-17,93,81,70,75,71,67,95,75,51,30.09,29.87,6,1,9,0.00
2013-7-18,94,81,74,75,72,69,92,76,48,29.91,29.84,11,1,12,0.00
2013-7-19,95,83,72,77,73,69,94,74,49,29.84,29.60,14,2,16,0.00
2013-7-20,91,82,74,78,73,65,91,75,58,29.71,29.54,7,1,11,0.00
2013-7-21,82,73,66,68,65,62,91,76,57,29.91,29.71,6,1,12,0.00
2013-7-22,84,73,66,72,68,65,98,85,60,29.95,29.82,6,1,11,0.00
2013-7-23,78,71,68,77,70,67,100,98,90,29.82,29.47,5,1,14,0.50
2013-7-24,83,74,64,74,68,54,100,84,63,29.90,29.51,8,2,12,0.86
2013-7-25,64,60,58,59,55,50,100,84,70,30.07,29.90,6,1,14,1.67
2013-7-26,70,64,59,69,64,59,100,98,91,30.02,29.88,11,2,14,0.24
2013-7-27,82,70,58,69,64,58,100,83,55,29.99,29.90,8,1,9,0.00
2013-7-28,82,71,65,73,67,63,98,90,74,29.95,29.89,5,1,11,0.02
2013-7-29,84,72,66,73,69,65,100,90,65,29.96,29.86,9,1,12,0.51
2013-7-30,80,70,60,67,62,58,99,79,51,30.03,29.95,6,1,12,0.00
2013-7-31,81,69,60,65,61,58,96,77,50,30.08,29.96,4,1,9,0.00
2013-8-1,82,69,61,67,63,60,98,83,57,29.97,29.80,12,1,12,0.06
2013-8-2,80,70,63,70,64,59,100,83,55,29.81,29.71,8,1,16,1.19
2013-8-3,77,68,62,66,63,60,100,85,61,29.79,29.69,6,1,12,0.01
2013-8-4,78,66,58,63,59,54,94,77,53,29.83,29.69,7,1,14,0.00
2013-8-5,75,64,54,55,51,44,93,67,37,29.99,29.83,8,2,16,0.00
2013-8-6,79,64,51,58,54,49,94,72,45,30.09,30.00,7,1,9,0.00
2013-8-7,81,67,56,63,57,54,97,73,44,30.14,30.03,6,2,11,0.00
2013-8-8,80,72,65,71,66,57,91,82,74,30.06,29.92,9,2,12,0.00
2013-8-9,74,72,70,74,71,69,100,97,92,29.94,29.66,8,2,15,0.96
2013-8-10,81,71,63,70,64,56,100,80,51,29.95,29.71,8,1,12,0.01
2013-8-11,78,66,55,61,57,53,95,74,48,30.03,29.92,5,1,9,0.00
2013-8-12,81,68,58,63,59,57,96,76,46,29.97,29.84,6,1,7,0.00
2013-8-13,73,68,64,69,65,61,97,91,79,29.85,29.61,4,0,7,0.04
2013-8-14,74,65,59,64,56,52,99,74,53,29.90,29.60,10,2,15,0.00
2013-8-15,76,64,53,56,53,51,94,72,46,30.05,29.90,8,1,12,0.00
2013-8-16,78,65,54,60,56,52,95,74,45,30.14,30.05,6,1,8,0.00
2013-8-17,81,66,56,64,59,54,96,78,53,30.22,30.14,7,1,9,0.00
2013-8-18,77,67,58,66,61,56,97,82,62,30.23,30.02,4,1,7,0.00
2013-8-19,80,69,59,66,62,58,97,79,57,30.02,29.88,6,1,7,0.00
2013-8-20,85,72,62,67,63,59,94,76,50,30.01,29.91,4,1,7,0.00
2013-8-21,86,73,61,69,64,60,96,76,50,30.08,29.94,4,1,9,0.00
2013-8-22,87,74,64,72,67,62,94,80,53,29.96,29.74,6,2,12,0.00
2013-8-23,80,71,63,69,61,51,94,71,50,30.07,29.74,7,2,11,0.00
2013-8-24,78,64,54,54,51,49,89,65,38,30.28,30.07,5,1,8,0.00
2013-8-25,82,66,53,59,54,50,95,69,39,30.33,30.12,5,1,9,0.00
2013-8-26,80,70,64,68,63,57,89,78,63,30.12,29.79,6,1,12,0.01
2013-8-27,84,74,67,70,68,64,96,82,60,29.83,29.75,7,1,7,0.00
2013-8-28,86,71,62,72,66,61,99,84,58,29.92,29.77,7,1,10,0.00
2013-8-29,66,64,61,65,62,59,97,93,89,30.03,29.89,8,2,11,0.00
2013-8-30,81,69,58,69,64,57,100,85,66,29.97,29.74,5,1,9,0.00
2013-8-31,79,73,68,76,71,66,100,94,84,29.76,29.70,6,2,9,0.30
2013-9-1,81,74,70,74,71,68,98,93,79,29.81,29.71,6,2,11,0.00
2013-9-2,77,73,71,76,72,71,100,97,91,29.79,29.63,6,1,8,0.46
2013-9-3,80,72,62,72,69,59,100,91,74,29.74,29.62,6,1,9,0.05
2013-9-4,79,67,57,61,58,56,99,77,51,29.85,29.74,7,1,11,0.00
2013-9-5,69,62,52,62,54,46,96,76,50,30.12,29.80,8,1,12,0.06
2013-9-6,69,56,45,48,45,43,94,69,42,30.23,30.06,6,1,9,0.00
2013-9-7,78,62,49,59,52,46,92,72,44,30.06,29.79,6,1,9,0.00
2013-9-8,72,63,51,62,54,43,90,73,47,30.06,29.69,10,2,20,0.02
2013-9-9,69,56,44,50,46,42,93,71,44,30.22,30.06,7,1,11,0.00
2013-9-10,73,64,54,70,62,50,98,90,79,30.11,29.97,6,2,14,0.12
2013-9-11,91,78,67,79,72,67,100,83,54,30.00,29.84,6,2,24,0.00
2013-9-12,79,72,69,74,68,66,96,88,77,29.87,29.76,6,1,12,0.00
2013-9-13,77,67,58,71,65,55,100,94,75,29.70,29.50,6,2,13,0.47
2013-9-14,66,59,53,57,54,51,93,84,71,30.02,29.70,8,2,11,0.01
2013-9-15,69,57,47,54,51,47,100,82,53,30.13,30.00,6,1,11,0.00
2013-9-16,66,56,47,58,51,40,96,83,67,30.22,29.97,8,2,14,0.00
2013-9-17,61,50,40,46,42,37,92,75,51,30.40,30.22,6,2,11,0.01
2013-9-18,71,55,41,51,46,40,100,76,41,30.29,30.08,4,1,9,0.00
2013-9-19,75,60,46,59,52,45,99,79,49,30.09,29.97,4,1,6,0.00
2013-9-20,76,61,49,63,55,48,100,83,54,30.05,29.93,6,1,7,0.00
2013-9-21,72,63,52,66,59,52,100,88,68,29.98,29.66,10,3,18,0.00
2013-9-22,69,63,52,67,58,46,100,85,61,29.78,29.53,10,2,18,0.84
2013-9-23,61,52,45,47,44,41,91,75,59,29.96,29.78,11,2,14,0.00
2013-9-24,63,52,41,48,44,40,97,77,53,29.95,29.77,9,2,18,0.00
2013-9-25,66,53,44,54,48,43,98,83,62,29.95,29.83,6,1,8,0.00
2013-9-26,64,56,51,52,50,49,93,81,60,30.09,29.95,5,1,7,0.00
2013-9-27,64,57,52,56,53,50,96,86,73,30.22,30.09,5,1,8,0.00
2013-9-28,70,57,47,60,52,47,100,87,62,30.29,30.22,7,1,9,0.00
2013-9-29,65,54,47,57,50,46,100,88,56,30.22,30.07,4,1,9,0.00
2013-9-30,65,54,47,56,50,46,100,89,61,30.09,29.92,4,1,6,0.00
2013-10-1,72,58,46,59,52,46,100,84,52,29.93,29.79,6,1,10,0.00
2013-10-2,76,63,52,63,58,51,100,83,60,29.89,29.76,8,1,14,0.00
2013-10-3,72,61,52,58,54,51,99,80,48,30.03,29.89,5,1,7,0.00
2013-10-4,60,56,51,59,55,50,100,96,89,30.05,29.98,3,0,5,0.32
2013-10-5,66,60,55,62,58,55,100,93,80,30.07,30.00,3,1,6,0.00
2013-10-6,58,55,53,57,55,53,100,100,94,30.19,30.06,6,1,9,0.39
2013-10-7,74,64,55,72,62,55,100,95,82,30.09,29.73,12,2,23,0.14
2013-10-8,63,54,46,57,48,41,98,80,53,30.33,29.84,6,2,15,0.00
2013-10-9,60,49,40,50,44,39,99,85,64,30.45,30.33,9,1,9,0.00
2013-10-10,60,50,41,54,48,41,100,93,78,30.34,30.15,3,1,5,0.00
2013-10-11,66,55,46,56,48,43,100,82,44,30.16,30.05,5,1,9,0.00
2013-10-12,57,52,46,56,51,45,100,96,88,30.36,30.12,6,0,11,0.00
2013-10-13,58,50,42,53,47,41,100,92,71,30.42,30.35,4,1,7,0.00
2013-10-14,61,49,38,51,44,38,100,86,55,30.37,30.20,4,1,7,0.00
2013-10-15,63,55,50,56,52,47,98,88,75,30.22,30.13,5,1,6,0.00
2013-10-16,60,54,49,56,53,49,100,95,81,30.14,29.87,3,0,5,0.00
2013-10-17,70,59,50,62,55,50,100,89,59,29.87,29.66,5,1,12,0.00
2013-10-18,65,59,47,61,52,41,100,81,55,29.85,29.55,10,2,17,0.09
2013-10-19,64,53,41,48,44,39,96,73,48,29.93,29.70,6,1,10,0.00
2013-10-20,60,52,41,49,41,36,95,70,45,29.98,29.64,11,0,15,0.00
2013-10-21,63,49,36,45,40,35,97,74,48,30.09,29.95,3,0,11,0.00
2013-10-22,63,52,43,53,46,39,100,80,63,29.95,29.66,9,0,15,0.00
2013-10-23,51,44,36,40,37,34,95,77,55,29.77,29.56,9,0,11,0.00
2013-10-24,51,43,34,37,32,28,93,66,45,29.84,29.59,21,0,23,0.00
2013-10-25,47,40,33,37,31,27,95,72,50,30.10,29.84,11,1,17,0.00
2013-10-26,53,42,30,38,31,27,96,69,39,30.11,29.82,11,2,21,0.00
2013-10-27,53,46,39,41,36,31,92,69,47,30.01,29.76,8,1,16,0.02
2013-10-28,56,43,33,38,32,26,93,68,45,30.30,30.01,10,2,16,0.00
2013-10-29,46,35,26,32,26,22,92,70,42,30.42,30.30,6,0,9,0.00
2013-10-30,48,37,30,42,34,26,97,89,80,30.33,30.14,4,0,4,0.04
2013-10-31,59,45,31,59,45,31,100,99,92,30.20,29.75,9,2,16,0.17
2013-11-1,68,62,56,63,58,53,100,85,70,29.74,29.38,20,5,34,0.05
2013-11-2,63,53,44,52,46,44,99,80,51,29.67,29.53,11,1,16,0.00
2013-11-3,50,40,30,47,30,18,89,68,44,30.42,29.67,10,4,14,0.00
2013-11-4,40,32,25,21,19,17,85,61,40,30.67,30.42,7,1,11,0.00
2013-11-5,47,35,24,34,28,21,89,76,52,30.68,30.46,4,0,8,0.00
2013-11-6,58,48,38,49,41,34,89,77,57,30.46,29.96,12,2,19,0.00
2013-11-7,63,53,38,58,50,31,97,90,75,29.95,29.62,12,3,17,0.15
2013-11-8,47,38,30,36,29,24,86,70,57,30.05,29.77,16,2,17,0.00
2013-11-9,44,37,30,30,26,23,78,63,46,30.17,29.95,9,2,16,0.00
2013-11-10,51,43,39,46,37,29,97,80,63,29.98,29.69,6,1,19,0.06
2013-11-11,49,43,38,34,30,28,73,60,44,30.06,29.80,16,3,20,0.00
2013-11-12,47,35,24,39,27,18,92,72,58,30.15,29.83,12,3,18,0.10
2013-11-13,34,27,22,19,17,14,81,66,48,30.25,30.09,11,2,16,0.00
2013-11-14,48,36,28,27,23,18,67,58,41,30.09,29.98,11,1,15,0.00
2013-11-15,58,40,28,32,24,20,75,56,24,30.15,30.04,9,0,13,0.00
2013-11-16,56,43,32,33,30,27,81,64,35,30.27,30.14,4,0,7,0.00
2013-11-17,49,40,30,47,37,27,99,88,78,30.28,29.76,2,0,4,0.04
2013-11-18,61,55,46,61,48,32,100,78,54,29.80,29.47,11,4,23,0.38
2013-11-19,46,38,30,32,24,17,65,57,47,30.26,29.62,14,5,21,0.00
2013-11-20,39,31,22,18,17,15,76,56,39,30.59,30.27,12,3,20,0.00
2013-11-21,45,31,20,29,21,15,86,68,40,30.60,30.30,7,0,11,0.00
2013-11-22,45,41,36,44,39,29,100,92,76,30.30,29.75,3,0,6,0.23
2013-11-23,44,38,28,44,30,14,100,73,48,29.87,29.73,13,4,19,0.00
2013-11-24,28,24,19,18,8,0,69,51,35,30.18,29.74,22,7,32,0.00
2013-11-25,31,23,15,18,5,-1,59,45,28,30.33,30.18,7,2,18,0.00
2013-11-26,38,34,30,34,23,16,96,66,51,30.30,29.96,7,1,12,0.14
2013-11-27,62,49,35,61,49,34,100,99,93,30.01,29.15,16,5,29,1.76
2013-11-28,37,30,21,35,21,11,94,71,48,30.40,29.39,14,2,22,0.00
2013-11-29,30,24,18,19,14,9,88,66,44,30.71,30.39,3,0,10,0.00
2013-11-30,31,22,13,24,15,9,90,75,59,30.76,30.36,1,0,7,0.00
2013-12-1,36,33,29,36,31,24,100,92,81,30.35,29.97,3,0,4,0.18
2013-12-2,38,36,35,38,36,35,100,100,100,29.98,29.87,0,0,2,0.01
2013-12-3,45,36,29,41,35,28,100,95,73,29.91,29.80,3,0,6,0.00
2013-12-4,41,32,28,32,29,27,100,89,67,30.16,29.90,3,0,10,0.00
2013-12-5,47,36,28,47,35,27,100,97,93,30.17,29.83,0,0,7,0.01
2013-12-6,52,46,33,52,44,33,100,94,73,30.11,29.80,7,0,14,0.26
2013-12-7,37,32,24,36,29,21,100,89,67,30.41,30.04,11,0,17,0.12
2013-12-8,29,25,20,22,20,18,94,81,66,30.54,30.41,0,0,4,0.00
2013-12-9,35,30,25,35,29,20,100,95,74,30.44,29.83,0,0,4,0.07
2013-12-10,34,30,23,34,29,17,100,95,74,29.98,29.73,7,0,16,0.06
2013-12-11,31,24,20,21,19,17,91,79,61,30.16,29.95,8,0,15,0.01
2013-12-12,23,19,13,20,11,5,91,72,47,30.23,29.99,7,0,16,0.00
2013-12-13,28,20,12,20,12,2,79,71,62,30.38,29.94,6,0,16,0.00
2013-12-14,18,13,9,17,5,-1,96,71,58,30.57,30.06,6,0,13,0.00
2013-12-15,32,24,17,32,24,16,100,98,95,30.14,29.39,0,0,3,0.00
2013-12-16,26,21,11,22,15,5,99,79,56,30.16,29.69,0,0,1,0.00
2013-12-17,18,10,0,17,6,-3,97,84,67,30.25,29.90,3,0,7,0.00
2013-12-18,32,23,15,24,20,14,97,87,67,30.02,29.83,8,0,13,0.00
2013-12-19,39,31,25,27,24,22,87,77,58,30.06,29.89,10,0,17,0.07
2013-12-20,49,38,30,37,32,26,88,79,63,30.07,29.84,5,0,12,1.00
2013-12-21,54,44,39,47,40,33,97,86,76,29.90,29.80,7,0,12,0.37
2013-12-22,46,38,32,46,38,32,100,100,97,30.00,29.74,7,2,12,0.05
2013-12-23,36,32,31,36,32,31,100,100,100,30.04,29.91,4,1,8,0.63
2013-12-24,36,31,24,36,25,15,100,80,65,30.18,29.99,9,2,14,0.00
2013-12-25,25,17,12,16,8,4,82,67,55,30.49,30.15,15,2,18,0.00
2013-12-26,29,22,14,27,19,10,99,88,78,30.44,30.03,2,0,3,0.00
2013-12-27,32,25,18,25,22,18,100,87,69,30.22,30.14,3,0,11,0.04
2013-12-28,43,30,22,30,25,20,95,82,59,30.15,29.92,8,0,16,0.10
2013-12-29,39,34,29,37,31,26,100,91,75,29.98,29.38,7,1,16,1.27
2013-12-30,40,31,15,39,26,7,100,83,58,30.14,29.51,12,1,19,0.01
2013-12-31,23,16,11,15,7,1,84,67,55,30.15,29.97,2,0,12,0.00
2014-1-1,26,19,14,14,10,7,80,68,54,30.33,30.13,4,0,14,0.00
2014-1-2,19,11,0,15,8,-2,92,90,80,30.31,29.82,11,1,17,0.00